GW2646 Weather Reports


time (UTC)temp
F
wind
direction
speed
knots
gust
knots
rain 1hr
in
rain 24hr
in
rain mn
in
humidity
%
barometer
mb
20260904104046 53 0 0.0 0.0 0.02 0.02 0.02 94 1010.8
20260904103549 53 0 0.0 0.0 0.02 0.02 0.02 94 1010.8
20260904103100 53 0 0.0 0.0 0.02 0.02 0.02 94 1010.8
20260904102547 53 0 0.0 0.0 0.01 0.01 0.01 94 1010.6
20260904102048 53 0 0.0 0.0 0.01 0.01 0.01 94 1010.9
20260904101609 53 0 0.0 0.0 0.00 0.00 0.00 94 1010.7
20260904101046 53 0 0.0 0.9 0.00 0.00 0.00 94 1010.5
20260904100551 53 0 0.0 0.9 0.00 0.00 0.00 94 1010.3
20260904100104 53 0 0.0 0.0 0.00 0.00 0.00 94 1010.3
20260904095547 53 0 0.0 0.0 0.00 0.00 0.00 94 1010.4
20260904095047 53 0 0.0 0.0 0.00 0.00 0.00 94 1010.4
20260904094601 53 0 0.0 0.0 0.00 0.00 0.00 94 1010.4
20260904094043 53 0 0.0 0.0 0.00 0.00 0.00 94 1010.5
20260904093547 53 0 0.0 0.0 0.00 0.00 0.00 93 1010.5
20260904093114 53 0 0.0 0.0 0.00 0.00 0.00 94 1010.6
20260904092550 53 0 0.0 0.0 0.00 0.00 0.00 93 1010.6
20260904092044 53 0 0.0 0.0 0.00 0.00 0.00 93 1010.5
20260904091556 53 0 0.0 0.0 0.00 0.00 0.00 93 1010.6
20260904091044 52 0 0.0 0.0 0.00 0.00 0.00 93 1010.6
20260904090546 52 0 0.0 0.0 0.00 0.00 0.00 93 1010.6
20260904090056 53 0 0.0 0.0 0.00 0.00 0.00 93 1010.7
20260904085549 53 0 0.0 0.0 0.00 0.00 0.00 93 1010.7
20260904085045 53 0 0.0 0.0 0.00 0.00 0.00 93 1010.8
20260904084601 53 0 0.0 0.0 0.00 0.00 0.00 93 1010.8
20260904084048 53 0 0.0 0.0 0.00 0.00 0.00 93 1010.8
20260904083546 53 0 0.0 0.0 0.00 0.00 0.00 93 1010.8
20260904083057 53 0 0.0 0.0 0.00 0.00 0.00 93 1010.8
20260904082546 53 0 0.0 0.0 0.00 0.00 0.00 93 1010.9
20260904082045 53 0 0.0 0.0 0.00 0.00 0.00 93 1010.8
20260904081556 53 0 0.0 0.0 0.00 0.00 0.00 93 1010.8
20260904081052 53 0 0.0 0.0 0.00 0.00 0.00 93 1010.8
20260904080546 53 0 0.0 0.0 0.00 0.00 0.00 93 1010.9
20260904080104 53 0 0.0 0.0 0.00 0.00 0.00 93 1010.9
20260904075547 53 0 0.0 0.0 0.00 0.00 0.00 93 1010.8
20260904075048 53 0 0.0 0.0 0.00 0.00 0.00 93 1010.9
20260904074558 53 0 0.0 0.0 0.00 0.00 0.00 93 1011.0
20260904074046 53 0 0.0 0.0 0.00 0.00 0.00 93 1011.0
20260904073546 53 0 0.0 1.7 0.00 0.00 0.00 93 1011.0
20260904073103 53 0 0.0 1.7 0.00 0.00 0.00 93 1011.0
20260904072546 53 0 0.0 1.7 0.00 0.00 0.00 93 1011.0
20260904072050 53 0 0.0 0.0 0.00 0.00 0.00 93 1011.0
20260904071605 53 0 0.0 0.0 0.00 0.00 0.00 93 1011.0
20260904071046 53 0 0.0 0.0 0.00 0.00 0.00 92 1010.9
20260904070550 53 0 0.0 0.0 0.00 0.00 0.00 92 1010.9
20260904070104 53 0 0.0 0.0 0.00 0.00 0.00 92 1011.0
20260904065546 53 0 0.0 0.0 0.00 0.00 0.00 92 1010.9
20260904065049 53 0 0.0 0.0 0.00 0.00 0.00 92 1010.9
20260904064600 53 0 0.0 0.0 0.00 0.00 0.00 92 1010.9
20260904064046 53 0 0.0 0.0 0.00 0.00 0.00 92 1010.8
20260904063546 53 0 0.0 0.0 0.00 0.00 0.00 91 1010.8
20260904063056 53 0 0.0 0.0 0.00 0.00 0.00 91 1010.9
20260904062546 53 0 0.0 0.0 0.00 0.00 0.00 91 1010.8
20260904062046 53 0 0.0 0.0 0.00 0.00 0.00 91 1010.8
20260904061600 53 0 0.0 0.0 0.00 0.00 0.00 91 1010.7
20260904061047 53 0 0.0 0.0 0.00 0.00 0.00 91 1010.7
20260904060547 53 0 0.0 1.7 0.00 0.00 0.00 91 1010.7
20260904055547 53 0 0.0 5.2 0.00 0.00 0.00 91 1010.7
20260904055048 53 0 0.0 0.9 0.00 0.00 0.00 91 1010.7
20260904054600 54 0 0.0 0.9 0.00 0.00 0.00 91 1010.6
20260904054046 54 0 0.0 0.9 0.00 0.00 0.00 90 1010.7
20260904053546 54 0 0.0 0.9 0.00 0.00 0.00 90 1010.6
20260904053056 54 0 0.0 1.7 0.00 0.00 0.00 90 1010.6
20260904052547 54 0 0.0 1.7 0.00 0.00 0.00 90 1010.5
20260904052047 55 0 0.0 1.7 0.00 0.00 0.00 89 1010.5
20260904051604 55 0 0.0 0.0 0.00 0.00 0.00 89 1010.6
20260904051047 55 0 0.0 0.0 0.00 0.00 0.00 89 1010.6
20260904050546 55 0 0.0 0.0 0.00 0.00 0.00 89 1010.6
20260904050058 55 0 0.0 0.0 0.00 0.00 0.00 89 1010.6
20260904045547 55 0 0.0 0.0 0.00 0.00 0.00 89 1010.7
20260904045046 55 0 0.0 0.0 0.00 0.00 0.00 89 1010.6
20260904044609 55 0 0.0 0.0 0.00 0.00 0.00 89 1010.6
20260904044048 55 0 0.0 0.0 0.00 0.00 0.00 89 1010.6
20260904043547 55 0 0.0 0.0 0.00 0.00 0.00 88 1010.6
20260904043058 55 0 0.0 0.0 0.00 0.00 0.00 88 1010.6
20260904042547 55 0 0.0 0.0 0.00 0.00 0.00 88 1010.7
20260904042046 55 0 0.0 0.0 0.00 0.00 0.00 88 1010.7
20260904041601 55 0 0.0 0.0 0.00 0.00 0.00 88 1010.8
20260904041047 55 0 0.0 0.0 0.00 0.00 0.00 88 1010.6
20260904040547 55 0 0.0 0.0 0.00 0.00 0.00 87 1010.6
20260904035546 55 0 0.0 0.0 0.00 0.00 0.00 86 1010.5
20260904035046 55 0 0.0 0.0 0.00 0.00 0.00 86 1010.5
20260904034601 56 0 0.0 0.0 0.00 0.00 0.00 86 1010.4
20260904034047 56 0 0.0 0.0 0.00 0.00 0.00 85 1010.4
20260904033549 56 0 0.0 0.0 0.00 0.00 0.00 85 1010.5
20260904033100 56 0 0.0 0.0 0.00 0.00 0.00 84 1010.4
20260904032546 57 0 0.0 0.0 0.00 0.00 0.00 83 1010.3
20260904032048 57 0 0.0 0.0 0.00 0.00 0.00 83 1010.2
20260904031603 57 0 0.0 0.0 0.00 0.00 0.00 82 1010.1
20260904031044 58 0 0.0 0.0 0.00 0.00 0.00 82 1010.1
20260904030547 58 0 0.0 0.0 0.00 0.00 0.00 82 1010.0
20260904030111 58 0 0.0 0.0 0.00 0.00 0.00 79 1009.9
20260904025547 59 0 0.0 0.0 0.00 0.00 0.00 77 1010.0
20260904025047 60 0 0.0 0.0 0.00 0.00 0.00 76 1009.9
20260904024608 61 0 0.0 0.0 0.00 0.00 0.00 73 1009.8
20260904024047 62 0 0.0 0.0 0.00 0.00 0.00 72 1009.8
20260904023546 63 0 0.0 0.0 0.00 0.00 0.00 71 1009.7
20260904023104 63 0 0.0 0.0 0.00 0.00 0.00 70 1009.6
20260904022546 63 0 0.0 0.0 0.00 0.00 0.00 67 1009.6
20260904022047 63 0 0.0 0.9 0.00 0.00 0.00 69 1009.6
20260904021602 64 0 0.0 0.9 0.00 0.00 0.00 68 1009.5
20260904021046 64 0 0.0 0.9 0.00 0.00 0.00 66 1009.6
20260904020546 64 0 0.0 0.0 0.00 0.00 0.00 66 1009.5
20260904020104 64 0 0.0 0.9 0.00 0.00 0.00 65 1009.5
20260904015545 65 0 0.0 0.9 0.00 0.00 0.00 65 1009.6
20260904015047 65 0 0.0 1.7 0.00 0.00 0.00 65 1009.5
20260904014602 65 0 0.0 1.7 0.00 0.00 0.00 64 1009.5
20260904014047 65 0 0.0 1.7 0.00 0.00 0.00 63 1009.6
20260904013546 65 0 0.0 1.7 0.00 0.00 0.00 63 1009.5
20260904013057 66 0 0.0 1.7 0.00 0.00 0.00 62 1009.6
20260904012545 66 0 0.0 4.3 0.00 0.00 0.00 61 1009.5
20260904012046 67 0 0.0 4.3 0.00 0.00 0.00 62 1009.5
20260904011613 67 0 0.0 5.2 0.00 0.00 0.00 59 1009.5
20260904011046 67 170 1.7 5.2 0.00 0.00 0.00 58 1009.5
20260904010552 67 0 0.0 5.2 0.00 0.00 0.00 59 1009.4
20260904010113 68 176 0.9 5.2 0.00 0.00 0.00 59 1009.5
20260904005546 68 0 0.9 4.3 0.00 0.02 0.00 59 1009.4
20260904005046 68 0 0.0 2.6 0.00 0.02 0.00 58 1009.4
20260904004605 68 0 0.0 3.5 0.00 0.02 0.00 57 1009.4
20260904004047 68 0 0.0 4.3 0.00 0.02 0.00 56 1009.5
20260904003546 69 165 0.0 5.2 0.00 0.02 0.00 56 1009.5
20260904003059 68 0 1.7 5.2 0.00 0.02 0.00 56 1009.5
20260904002550 68 187 0.9 5.2 0.00 0.02 0.00 56 1009.5
20260904002048 67 202 2.6 4.3 0.00 0.02 0.00 58 1009.6
20260904001600 67 167 0.9 4.3 0.00 0.02 0.00 59 1009.6
20260904001046 67 196 0.9 5.2 0.00 0.02 0.00 59 1009.6
20260904000546 66 211 2.6 5.2 0.00 0.02 0.00 59 1009.7
20260904000103 67 177 0.0 2.6 0.00 0.02 0.00 59 1009.6
20260903235547 66 0 0.0 0.9 0.00 0.10 0.00 61 1009.6
20260903235046 66 0 0.0 3.5 0.00 0.10 0.00 62 1009.7
20260903234605 66 0 0.0 3.5 0.00 0.10 0.00 62 1009.8
20260903234047 66 0 0.0 1.7 0.00 0.10 0.00 62 1009.8
20260903233547 65 0 0.0 2.6 0.00 0.10 0.00 62 1009.8
20260903233104 65 0 0.0 2.6 0.00 0.10 0.00 65 1009.7
20260903232547 65 176 0.0 1.7 0.00 0.10 0.00 64 1009.6
20260903232046 65 0 0.0 2.6 0.00 0.10 0.00 64 1009.8
20260903231603 65 177 0.0 2.6 0.00 0.10 0.00 65 1009.7
20260903231046 65 0 0.0 1.7 0.00 0.10 0.00 66 1009.7
20260903230547 65 0 0.0 2.6 0.00 0.10 0.00 65 1009.8
20260903230100 64 0 0.0 2.6 0.00 0.10 0.00 67 1009.8
20260903225547 64 0 0.0 2.6 0.00 0.10 0.00 66 1009.8
20260903225046 64 178 0.0 1.7 0.00 0.10 0.00 67 1009.9
20260903224602 64 0 0.0 1.7 0.00 0.10 0.00 67 1009.8
20260903224046 64 0 0.0 2.6 0.00 0.10 0.00 67 1009.8
20260903223547 64 0 0.0 2.6 0.00 0.10 0.00 69 1009.9
20260903223101 64 0 0.0 2.6 0.00 0.10 0.00 65 1009.8
20260903222547 64 0 0.0 3.5 0.00 0.10 0.00 67 1009.8
20260903222051 64 0 0.0 3.5 0.00 0.10 0.00 68 1009.8
20260903221603 64 360 0.0 3.5 0.00 0.10 0.00 66 1009.8
20260903221046 64 0 0.0 3.5 0.00 0.10 0.00 67 1009.8
20260903220546 64 0 0.0 3.5 0.00 0.10 0.00 67 1009.8
20260903220117 64 0 0.0 2.6 0.00 0.10 0.00 67 1009.8
20260903215547 64 0 0.0 3.5 0.00 0.10 0.00 66 1009.8
20260903215046 64 24 0.0 3.5 0.00 0.10 0.00 68 1009.8
20260903214605 64 0 0.9 3.5 0.00 0.10 0.00 68 1009.8
20260903214046 65 323 0.0 2.6 0.00 0.10 0.00 68 1009.9
20260903213546 65 0 0.0 2.6 0.00 0.10 0.00 68 1009.9
20260903213105 63 323 0.0 3.5 0.00 0.10 0.00 70 1009.9
20260903212548 62 0 0.9 3.5 0.00 0.10 0.00 71 1009.9
20260903212047 62 323 0.0 2.6 0.00 0.10 0.00 71 1009.9
20260903211603 63 322 0.0 2.6 0.00 0.10 0.00 70 1010.0
20260903211047 63 0 0.0 2.6 0.00 0.10 0.00 69 1010.0
20260903210545 62 248 0.0 2.6 0.00 0.10 0.00 69 1010.0
20260903210107 62 0 0.0 2.6 0.00 0.10 0.00 69 1010.0
20260903205546 62 0 0.0 1.7 0.00 0.10 0.00 70 1010.0
20260903205046 61 0 0.9 1.7 0.00 0.10 0.00 70 1009.9
20260903204602 62 169 0.0 1.7 0.00 0.10 0.00 69 1010.0
20260903204046 62 0 0.0 4.3 0.00 0.10 0.00 70 1009.9
20260903203544 61 0 0.9 4.3 0.00 0.10 0.00 70 1009.9
20260903203131 62 0 0.0 3.5 0.00 0.10 0.00 71 1009.9
20260903202546 61 0 0.0 3.5 0.00 0.10 0.00 70 1009.8
20260903202047 61 0 0.0 4.3 0.00 0.10 0.00 70 1009.9
20260903201600 61 0 1.7 4.3 0.00 0.10 0.00 71 1009.9
20260903201046 61 202 0.9 3.5 0.00 0.10 0.00 71 1009.9
20260903200544 60 0 0.0 4.3 0.00 0.10 0.00 72 1010.0
20260903200100 60 0 0.9 4.3 0.00 0.10 0.00 73 1010.0
20260903195548 60 0 1.7 4.3 0.00 0.10 0.00 73 1009.9
20260903195046 60 196 1.7 4.3 0.00 0.10 0.00 73 1010.0
20260903194602 60 178 1.7 4.3 0.00 0.10 0.00 72 1009.9
20260903194046 61 229 0.9 5.2 0.00 0.10 0.00 73 1009.8
20260903193549 61 229 1.7 5.2 0.00 0.10 0.00 72 1009.8
20260903193101 61 208 1.7 4.3 0.00 0.10 0.00 71 1009.7
20260903192549 61 207 0.0 3.5 0.00 0.10 0.00 70 1009.7
20260903192046 61 0 0.9 5.2 0.00 0.10 0.00 70 1009.6
20260903191604 61 207 1.7 5.2 0.00 0.10 0.00 69 1009.5
20260903191046 62 144 0.0 2.6 0.00 0.10 0.00 69 1009.5
20260903190548 62 144 0.0 2.6 0.00 0.10 0.00 68 1009.5
20260903190107 62 144 0.0 3.5 0.00 0.10 0.00 70 1009.4
20260903185550 61 0 0.0 3.5 0.00 0.10 0.00 72 1009.5
20260903185046 61 0 0.0 7.0 0.00 0.10 0.00 70 1009.5
20260903184602 61 0 3.5 8.7 0.00 0.10 0.00 69 1009.5
20260903184047 62 184 3.5 8.7 0.00 0.10 0.00 69 1009.5
20260903183546 62 0 1.7 7.0 0.00 0.10 0.00 69 1009.4
20260903183106 62 0 0.9 7.8 0.00 0.10 0.00 69 1009.3
20260903182547 62 0 0.0 7.8 0.00 0.10 0.00 68 1009.3
20260903182047 62 172 2.6 7.8 0.00 0.10 0.00 67 1009.3
20260903181556 62 188 0.0 4.3 0.00 0.10 0.00 71 1009.4
20260903181049 61 0 0.9 4.3 0.00 0.10 0.00 71 1009.3
20260903180545 61 171 0.0 5.2 0.00 0.10 0.00 74 1009.3
20260903180107 61 0 0.0 5.2 0.00 0.10 0.00 72 1009.3
20260903175550 61 0 0.0 6.1 0.00 0.10 0.00 73 1009.3
20260903175046 61 171 0.0 6.1 0.00 0.10 0.00 73 1009.2
20260903174601 60 0 0.0 3.5 0.00 0.10 0.00 74 1009.3
20260903174048 60 182 0.0 3.5 0.00 0.10 0.00 78 1009.2
20260903173544 59 0 0.0 0.9 0.00 0.10 0.00 78 1009.3
20260903173102 58 0 0.0 1.7 0.00 0.10 0.00 81 1009.2
20260903172546 58 0 0.0 4.3 0.00 0.10 0.00 81 1009.3
20260903172044 58 0 0.0 7.8 0.00 0.10 0.00 79 1009.3
20260903171616 58 0 0.9 7.8 0.00 0.10 0.00 79 1009.3
20260903171044 59 0 0.9 8.7 0.00 0.10 0.00 78 1009.2
20260903170547 59 196 2.6 10.4 0.00 0.10 0.00 77 1009.2
20260903170104 59 141 2.6 10.4 0.00 0.10 0.00 76 1009.1
20260903165545 59 156 1.7 7.8 0.00 0.10 0.00 75 1009.1
20260903165047 59 165 0.9 8.7 0.00 0.10 0.00 76 1009.0
20260903164642 59 197 2.6 8.7 0.00 0.10 0.00 72 1009.0
20260903164047 59 0 3.5 8.7 0.00 0.10 0.00 74 1009.0
20260903163546 59 153 1.7 8.7 0.00 0.10 0.00 75 1009.0
20260903163103 59 167 0.9 7.8 0.00 0.10 0.00 76 1009.1
20260903162545 59 150 1.7 7.8 0.00 0.10 0.00 77 1009.1
20260903162048 59 188 3.5 8.7 0.00 0.10 0.00 76 1009.1
20260903161602 59 0 1.7 8.7 0.00 0.10 0.00 76 1009.0
20260903161047 59 184 2.6 8.7 0.00 0.10 0.00 75 1009.1
20260903160547 59 0 3.5 8.7 0.00 0.10 0.00 76 1009.1
20260903160109 59 156 3.5 10.4 0.00 0.10 0.00 76 1009.1
20260903155546 59 144 3.5 12.2 0.00 0.10 0.00 76 1009.0
20260903155048 58 175 4.3 12.2 0.00 0.10 0.00 76 1009.0
20260903154608 58 172 2.6 7.8 0.00 0.10 0.00 78 1009.0
20260903154048 58 160 2.6 7.8 0.00 0.10 0.00 78 1008.9
20260903153545 58 146 0.9 7.8 0.00 0.10 0.00 79 1009.0
20260903153102 57 154 2.6 7.0 0.00 0.10 0.00 79 1009.0
20260903152545 57 168 2.6 7.0 0.00 0.10 0.00 80 1009.0
20260903152050 57 149 0.9 5.2 0.00 0.10 0.00 82 1008.9
20260903151557 57 0 1.7 7.0 0.00 0.10 0.00 81 1008.9
20260903151046 57 0 0.0 7.0 0.00 0.10 0.00 81 1008.9
20260903150547 56 182 1.7 7.0 0.00 0.10 0.00 81 1008.9
20260903150100 56 0 1.7 7.0 0.00 0.10 0.00 81 1008.9
20260903145545 56 171 2.6 8.7 0.00 0.10 0.00 81 1008.8
20260903145047 56 128 2.6 8.7 0.00 0.10 0.00 81 1008.9
20260903144612 56 171 1.7 8.7 0.00 0.10 0.00 82 1008.9
20260903144047 56 194 3.5 8.7 0.00 0.10 0.00 82 1008.8
20260903143547 56 151 1.7 6.1 0.00 0.10 0.00 82 1008.8
20260903143101 56 145 0.9 6.1 0.00 0.10 0.00 82 1008.8
20260903142545 56 149 1.7 6.1 0.00 0.10 0.00 82 1008.7
20260903142047 56 157 1.7 7.0 0.00 0.10 0.00 83 1008.8
20260903141559 55 0 0.9 7.0 0.00 0.10 0.00 83 1008.6
20260903141046 55 157 1.7 6.1 0.00 0.10 0.00 85 1008.6
20260903140547 55 0 1.7 6.1 0.00 0.10 0.00 86 1008.6
20260903135546 54 0 0.0 3.5 0.00 0.10 0.00 88 1008.4
20260903135044 54 0 0.0 2.6 0.00 0.10 0.00 88 1008.3
20260903134613 54 0 0.0 2.6 0.00 0.10 0.00 88 1008.3
20260903134046 54 0 0.0 0.9 0.00 0.10 0.00 87 1008.2
20260903133551 55 0 0.0 0.9 0.00 0.10 0.00 87 1008.3
20260903133105 55 0 0.0 0.9 0.00 0.10 0.00 86 1008.3
20260903132547 55 0 0.0 1.7 0.00 0.10 0.00 85 1008.3
20260903132050 56 0 0.0 3.5 0.00 0.10 0.00 84 1008.2
20260903131559 56 0 0.0 3.5 0.00 0.10 0.00 83 1008.3
20260903131046 56 144 1.7 3.5 0.00 0.10 0.00 82 1008.2
20260903130550 56 144 0.9 2.6 0.00 0.10 0.00 81 1008.2
20260903130059 56 0 0.0 2.6 0.00 0.10 0.00 80 1008.0
20260903125546 56 0 0.0 2.6 0.00 0.10 0.00 80 1008.0
20260903125049 56 144 0.0 6.1 0.00 0.10 0.00 80 1008.0
20260903124619 56 0 0.0 6.1 0.00 0.10 0.00 80 1007.9
20260903124046 56 0 0.0 4.3 0.00 0.10 0.00 80 1007.8
20260903123558 56 165 0.0 2.6 0.00 0.10 0.00 80 1007.9
20260903123100 56 0 0.0 4.3 0.00 0.10 0.00 80 1007.8
20260903122545 56 0 0.0 4.3 0.00 0.10 0.00 80 1007.8
20260903122047 56 0 0.0 3.5 0.00 0.10 0.00 80 1007.8
20260903121603 56 0 0.0 3.5 0.00 0.10 0.00 80 1007.8
20260903121046 56 165 0.0 2.6 0.00 0.10 0.00 81 1007.7
20260903120546 56 0 0.0 2.6 0.00 0.10 0.00 81 1007.7
20260903120104 56 0 0.0 3.5 0.00 0.10 0.00 82 1007.7
20260903115546 56 0 0.0 3.5 0.00 0.10 0.00 81 1007.7
20260903115046 56 0 0.0 2.6 0.00 0.10 0.00 82 1007.6
20260903114555 56 0 0.0 3.5 0.00 0.10 0.00 82 1007.6
20260903114046 56 0 0.0 3.5 0.00 0.10 0.00 81 1007.6
20260903113550 56 165 0.0 2.6 0.00 0.10 0.00 82 1007.6
20260903113136 56 0 0.0 3.5 0.00 0.10 0.00 80 1007.6
20260903112549 56 166 1.7 6.1 0.00 0.10 0.00 80 1007.7
20260903112044 56 165 0.9 7.0 0.00 0.10 0.00 81 1007.7
20260903111557 56 144 0.0 7.0 0.00 0.10 0.00 82 1007.6
20260903111047 56 0 0.0 2.6 0.00 0.10 0.00 82 1007.6
20260903110547 56 0 0.0 0.9 0.00 0.10 0.00 80 1007.6
20260903110108 56 0 0.0 0.9 0.00 0.10 0.00 81 1007.6
20260903105544 56 0 0.0 4.3 0.00 0.10 0.00 81 1007.6
20260903105047 56 0 0.0 4.3 0.00 0.10 0.00 80 1007.6
20260903104609 56 0 0.0 7.8 0.00 0.10 0.00 80 1007.5